Weather History for KIZG - May, 2014

Change the Weather History Date:

Saturday, May 17, 2014

  Actual Average Record
Temperature  
Mean Temperature 64 °F -  
Max Temperature 73 °F 65 °F 82 °F (2015)
Min Temperature 46 °F 38 °F 26 °F (2003)
Degree Days  
Heating Degree Days 2    
Growing Degree Days 14 (Base 50)    
Moisture  
Dew Point 55 °F    
Average Humidity 81    
Maximum Humidity 97    
Minimum Humidity 31    
Precipitation  
Precipitation 0.98 in - - ()
Sea Level Pressure  
Sea Level Pressure 29.91 in    
Wind  
Wind Speed 7 mph (South)    
Max Wind Speed 15 mph    
Max Gust Speed 28 mph    
Visibility 6 miles    
Events Rain    
Averages and records for this station are not official NWS values.
T = Trace of Precipitation, MM = Missing Value Source: NWS Daily Summary

Daily Weather History Graph

Daily Weather History Graph

Search for Another Location

Airport or City:

Trip Planner

Search our weather history database for the weather conditions in past years. The results will help you decide how hot, cold, wet, or windy it might be!

Date:

Astronomy

May. 17, 2014 Rise Set
Actual Time 5:15 AM EDT 8:05 PM EDT
Civil Twilight 4:42 AM EDT 8:39 PM EDT
Nautical Twilight 3:59 AM EDT 9:21 PM EDT
Astronomical Twilight 3:10 AM EDT 10:11 PM EDT
Moon 11:02 PM EDT (5/17) 7:55 AM EDT (5/17)
Length of Visible Light 15h 57m
Length of Day
14h 49m
Waning Gibbous, 89% of the Moon is Illuminated
May 17
Waning Gibbous
May 21
Last Quarter
May 28
New
Jun 5
First Quarter
Jun 13
Full

Hourly Weather History & Observations

Time (EDT) Temp. Dew Point Humidity Pressure Visibility Wind Dir Wind Speed Gust Speed Precip Events Conditions
12:54 AM 59.0 °F 57.9 °F 96% 29.98 in 7.0 mi SE 4.6 mph - N/A   Overcast
1:54 AM 60.1 °F 59.0 °F 96% 29.95 in 9.0 mi SE 6.9 mph - 0.00 in Rain Light Rain
2:49 AM 60.8 °F 59.0 °F 94% 29.93 in 6.0 mi Variable 6.9 mph - 0.00 in   Overcast
2:54 AM 60.1 °F 59.0 °F 96% 29.93 in 6.0 mi ESE 6.9 mph - 0.00 in   Overcast
3:01 AM 60.1 °F 59.0 °F 96% 29.93 in 5.0 mi SSE 8.1 mph - N/A   Overcast
3:54 AM 60.1 °F 57.9 °F 93% 29.91 in 9.0 mi SSE 5.8 mph - 0.01 in Rain Light Rain
4:32 AM 60.1 °F 57.9 °F 93% 29.90 in 6.0 mi SSE 9.2 mph 19.6 mph 0.01 in Rain Light Rain
4:47 AM 60.1 °F 57.9 °F 93% 29.90 in 6.0 mi SSE 15.0 mph 19.6 mph 0.01 in   Overcast
4:54 AM 60.1 °F 57.9 °F 93% 29.90 in 5.0 mi SSE 10.4 mph 19.6 mph 0.01 in   Overcast
5:54 AM 60.1 °F 57.9 °F 93% 29.89 in 8.0 mi SSE 11.5 mph 24.2 mph 0.02 in Rain Light Rain
6:42 AM 60.1 °F 59.0 °F 96% 29.87 in 1.8 mi SSE 11.5 mph 26.5 mph 0.09 in Rain Heavy Rain
6:50 AM 60.8 °F 59.0 °F 94% 29.87 in 0.8 mi SE 13.8 mph 19.6 mph 0.27 in Rain Heavy Rain
6:54 AM 60.1 °F 59.0 °F 96% 29.87 in 0.8 mi SE 15.0 mph 27.6 mph 0.32 in Rain Heavy Rain
6:58 AM 60.1 °F 59.0 °F 96% 29.86 in 1.0 mi SSE 9.2 mph 27.6 mph 0.02 in Rain Heavy Rain
7:13 AM 60.1 °F 59.0 °F 96% 29.87 in 1.5 mi SE 9.2 mph - 0.15 in Rain Heavy Rain
7:17 AM 60.1 °F 59.0 °F 96% 29.86 in 2.5 mi SE 12.7 mph 16.1 mph 0.17 in Rain Rain
7:24 AM 60.1 °F 59.0 °F 96% 29.87 in 2.0 mi SE 11.5 mph 18.4 mph 0.22 in Rain Heavy Rain
7:47 AM 60.1 °F 57.9 °F 93% 29.89 in 1.8 mi SSW 10.4 mph 23.0 mph 0.35 in Rain Rain
7:54 AM 60.1 °F 59.0 °F 96% 29.90 in 1.8 mi WSW 5.8 mph - 0.39 in Rain Heavy Rain
7:56 AM 60.1 °F 59.0 °F 96% 29.90 in 1.5 mi Variable 4.6 mph - 0.02 in Rain Heavy Rain
8:03 AM 60.1 °F 57.9 °F 93% 29.89 in 1.2 mi West 3.5 mph - 0.06 in Rain Rain
8:06 AM 60.1 °F 57.9 °F 93% 29.90 in 1.8 mi Variable 3.5 mph - 0.07 in Rain Rain
8:09 AM 60.1 °F 57.9 °F 93% 29.89 in 2.0 mi Calm Calm - 0.08 in Rain Rain
8:18 AM 60.1 °F 59.0 °F 96% 29.89 in 3.0 mi East 3.5 mph - 0.11 in Rain Rain
8:35 AM 60.1 °F 59.0 °F 96% 29.88 in 3.0 mi Calm Calm - 0.16 in Rain Rain
8:42 AM 60.1 °F 59.0 °F 96% 29.89 in 3.0 mi East 3.5 mph - 0.18 in Rain Rain
8:54 AM 61.0 °F 60.1 °F 97% 29.89 in 5.0 mi Calm Calm - 0.20 in Rain Light Rain
8:59 AM 61.0 °F 59.0 °F 93% 29.89 in 2.5 mi Calm Calm - 0.01 in Rain Rain
9:04 AM 61.0 °F 59.0 °F 93% 29.88 in 3.0 mi East 3.5 mph - 0.01 in Rain Light Rain
9:31 AM 61.0 °F 59.0 °F 93% 29.90 in 10.0 mi SSE 3.5 mph - 0.02 in   Overcast
9:54 AM 61.0 °F 59.0 °F 93% 29.89 in 5.0 mi South 3.5 mph - 0.03 in Rain Light Rain
10:54 AM 62.1 °F 57.9 °F 86% 29.89 in 8.0 mi SSE 5.8 mph - 0.00 in   Overcast
11:43 AM 64.0 °F 59.0 °F 84% 29.89 in 10.0 mi SSE 6.9 mph - N/A   Mostly Cloudy
11:54 AM 64.0 °F 57.9 °F 80% 29.90 in 10.0 mi SSE 5.8 mph - N/A   Mostly Cloudy
12:10 PM 66.9 °F 59.0 °F 76% 29.89 in 10.0 mi Variable 4.6 mph - N/A   Scattered Clouds
12:54 PM 68.0 °F 57.0 °F 68% 29.90 in 10.0 mi West 4.6 mph - N/A   Mostly Cloudy
1:11 PM 70.0 °F 54.0 °F 57% 29.90 in 10.0 mi WSW 8.1 mph - N/A   Mostly Cloudy
1:54 PM 72.0 °F 53.1 °F 51% 29.90 in 10.0 mi SW 8.1 mph - N/A   Partly Cloudy
2:54 PM 73.0 °F 45.0 °F 37% 29.90 in 10.0 mi WSW 8.1 mph - N/A   Clear
3:54 PM 73.0 °F 44.1 °F 35% 29.91 in 10.0 mi SW 9.2 mph - N/A   Clear
4:54 PM 73.9 °F 43.0 °F 33% 29.91 in 10.0 mi Variable 4.6 mph - N/A   Partly Cloudy
5:54 PM 72.0 °F 39.9 °F 31% 29.92 in 10.0 mi WSW 4.6 mph - N/A   Partly Cloudy
6:54 PM 69.1 °F 39.9 °F 35% 29.94 in 10.0 mi WSW 8.1 mph - N/A   Scattered Clouds
7:54 PM 64.9 °F 39.0 °F 39% 29.97 in 10.0 mi WSW 4.6 mph - N/A   Partly Cloudy
8:54 PM 61.0 °F 39.9 °F 46% 29.99 in 10.0 mi Variable 6.9 mph - N/A   Clear
9:54 PM 57.0 °F 41.0 °F 55% 30.02 in 10.0 mi Variable 4.6 mph - N/A   Clear
10:54 PM 54.0 °F 41.0 °F 62% 30.04 in 10.0 mi Calm Calm - N/A   Partly Cloudy
11:54 PM 46.9 °F 43.0 °F 86% 30.06 in 10.0 mi WNW 4.6 mph - N/A   Clear